Home   Weather   Inglewood   Past weeks

Flag for USA Past Weather in Inglewood, California, USA — Yesterday and Last 2 Weeks

Now
71 °F

Sunny.


Feels Like: 73 °F
Forecast: 65 / 73 °F
Wind: 7 mph from Northwest

Location: Hawthorne Municipal Airport

Current Time: Aug 17, 2017 at 7:56:30 pm

Latest Report: Aug 17, 2017 at 6:53 pm


Visibility: 10 mi

Pressure: 29.96 "Hg

Humidity: 73%

Dew Point: 62 °F

Location of InglewoodLocation

Past Weather in Inglewood — Graph

°F

Inglewood Temperature Yesterday

Maximum temperature yesterday: 75 °F (at 11:53 am)
Minimum temperature yesterday: 66 °F (at 11:53 pm)
Average temperature yesterday: 69 °F

High & Low Weather Summary for the Past Weeks

 TemperatureHumidityPressure
High86 °F (Aug 3, 11:53 am)90% (Aug 9, 4:53 am)30.03 "Hg (Aug 9, 4:53 am)
Low66 °F (Aug 12, 5:53 am)49% (Aug 3, 12:53 pm)29.81 "Hg (Aug 11, 5:53 pm)
Average71 °F76%29.91 "Hg
* Reported Aug 2 5:53 pm — Aug 17 5:53 pm, Inglewood. Weather by CustomWeather, © 2017

Note: Actual official high and low records may vary slightly from our data, if they occured in-between our weather recording intervals... More about our weather records

Advertising

Inglewood Weather History for the Previous 24 Hours

Scroll right to see more
 ConditionsComfort  
Time TempWeatherWind HumidityBarometerVisibility
5:53 pm
Thu, Aug 17
72 °FSunny.12 mph71%29.95 "Hg10 mi
4:53 pm74 °FSunny.12 mph69%29.95 "Hg10 mi
3:53 pm74 °FSunny.13 mph67%29.97 "Hg10 mi
2:53 pm75 °FSunny.14 mph62%29.98 "Hg10 mi
1:53 pm75 °FSunny.12 mph62%29.99 "Hg10 mi
12:53 pm76 °FSunny.10 mph62%30.00 "Hg10 mi
11:53 am74 °FSunny.8 mph67%30.02 "Hg10 mi
10:53 am73 °FPassing clouds.6 mph66%30.03 "Hg10 mi
9:53 am71 °FOvercast.5 mph71%30.03 "Hg10 mi
9:30 am71 °FPartly sunny.5 mph73%30.03 "Hg10 mi
8:53 am68 °FScattered clouds.No wind78%30.02 "Hg10 mi
7:53 am67 °FSunny.3 mph81%30.01 "Hg10 mi
6:53 am67 °FSunny.No wind81%30.00 "Hg9 mi
5:53 am66 °FClear.No wind84%29.98 "Hg10 mi
4:53 am66 °FClear.No wind84%29.97 "Hg10 mi
3:53 am66 °FClear.No wind84%29.96 "Hg10 mi
2:53 am66 °FClear.No wind81%29.96 "Hg10 mi
1:53 am66 °FClear.3 mph81%29.96 "Hg10 mi
12:53 am66 °FClear.5 mph81%29.97 "Hg10 mi
11:53 pm
Wed, Aug 16
66 °FClear.6 mph84%29.96 "Hg10 mi
10:53 pm67 °FClear.6 mph81%29.96 "Hg10 mi
9:53 pm67 °FClear.9 mph81%29.96 "Hg10 mi
8:53 pm68 °FClear.6 mph78%29.95 "Hg10 mi
7:53 pm68 °FClear.8 mph82%29.93 "Hg10 mi
Weather by CustomWeather, © 2017

See weather overviewHow to use our weather pages